Regional Weather Roundup
Issued by NWS Goodland, KS

Home | Current Version | Previous Version | Graphics & Text | Print | Product List | Glossary On
Versions: 1 2 3 4 5 6 7 8 9 10 11 12 13 14 15 16 17 18 19 20 21 22 23 24 25 26 27 28 29 30 31 32 33 34 35 36 37 38 39 40 41 42 43 44 45 46 47 48 49 50
000
ASUS43 KGLD 271508
RWRGLD

GOODLAND FORECAST AREA HOURLY WEATHER ROUNDUP
NATIONAL WEATHER SERVICE GOODLAND KS
900 AM MDT TUE SEP 27 2016

...OFFICIAL OBSERVATIONS...

CITY           SKY/WX    TMP DP  RH WIND       PRES   REMARKS
GOODLAND KS    SUNNY     67  43  41 W5        30.18S
HILL CITY KS   SUNNY     65  49  56 NW7       30.13R
IMPERIAL NEB   SUNNY     59  43  55 NW3       30.16S
MCCOOK NEB     SUNNY     56  43  61 W9        30.14S HAZE
AKRON CO       SUNNY     57  35  43 SW13      30.22S
BURLINGTON CO  SUNNY     62  41  46 W9        30.22R
LIMON CO       SUNNY     62  31  31 CALM      30.26S
$$

...UNOFFICIAL OBSERVATIONS...

CITY           SKY/WX    TMP DP  RH WIND       PRES   REMARKS
COLBY KS       SUNNY     66  46  48 W8        30.18S
LENORA KS        N/A     61  32  33 MISG        N/A
NORTON KS      SUNNY     63  39  42 CALM      30.12S
SHARON SPRINGS   N/A     64  48  56 CALM        N/A
KIT CARSON CO    N/A     59  41  52 CALM        N/A
$$



USA.gov is the U.S. government's official web portal to all federal, state and local government web resources and services.